TimeCDT,TemperatureF,Dew PointF,Humidity,Sea Level PressureIn,VisibilityMPH,Wind Direction,Wind SpeedMPH,Gust SpeedMPH,PrecipitationIn,Events,Conditions,WindDirDegrees,DateUTC
12:53 AM,82.0,73.9,76,29.96,10.0,South,9.2,-,N/A,,Clear,190,2013-07-23 05:53:00
1:53 AM,82.0,73.0,74,29.96,10.0,SSW,10.4,-,N/A,,Clear,200,2013-07-23 06:53:00
2:53 AM,81.0,71.1,72,29.96,10.0,South,11.5,-,N/A,,Clear,190,2013-07-23 07:53:00
3:53 AM,80.1,71.1,74,29.96,10.0,SSW,15.0,-,N/A,,Clear,210,2013-07-23 08:53:00
4:53 AM,79.0,72.0,79,29.96,10.0,SSW,10.4,-,N/A,,Clear,210,2013-07-23 09:53:00
5:53 AM,78.1,73.0,84,29.96,10.0,SSW,13.8,21.9,N/A,,Mostly Cloudy,210,2013-07-23 10:53:00
6:10 AM,78.8,73.4,83,29.99,10.0,SSW,16.1,20.7,N/A,,Mostly Cloudy,210,2013-07-23 11:10:00
6:53 AM,78.1,73.0,84,29.97,10.0,SSW,9.2,-,N/A,,Overcast,210,2013-07-23 11:53:00
7:53 AM,79.0,73.0,82,29.98,10.0,SSW,11.5,-,N/A,,Overcast,210,2013-07-23 12:53:00
8:53 AM,81.0,73.0,77,30.00,10.0,SW,15.0,21.9,N/A,,Overcast,220,2013-07-23 13:53:00
9:53 AM,84.0,72.0,67,30.01,10.0,WSW,13.8,-,N/A,,Scattered Clouds,240,2013-07-23 14:53:00
10:53 AM,86.0,72.0,63,30.01,10.0,WSW,11.5,-,N/A,,Scattered Clouds,240,2013-07-23 15:53:00
11:53 AM,88.0,72.0,59,30.00,10.0,SSW,15.0,-,N/A,,Partly Cloudy,210,2013-07-23 16:53:00
12:53 PM,90.0,72.0,55,29.98,10.0,South,13.8,21.9,N/A,,Partly Cloudy,190,2013-07-23 17:53:00
1:53 PM,91.9,73.0,54,29.96,10.0,South,12.7,-,N/A,,Clear,190,2013-07-23 18:53:00
2:53 PM,91.9,72.0,52,29.95,10.0,SW,11.5,-,N/A,,Clear,230,2013-07-23 19:53:00
3:53 PM,93.0,72.0,50,29.91,10.0,SW,12.7,-,N/A,,Clear,230,2013-07-23 20:53:00
4:53 PM,93.0,72.0,50,29.90,10.0,SW,13.8,-,N/A,,Clear,220,2013-07-23 21:53:00
5:53 PM,91.9,70.0,48,29.88,10.0,SSW,12.7,-,N/A,,Clear,200,2013-07-23 22:53:00
6:53 PM,90.0,70.0,52,29.85,10.0,South,5.8,-,N/A,,Clear,190,2013-07-23 23:53:00
7:53 PM,87.1,70.0,57,29.87,10.0,South,3.5,-,N/A,,Clear,170,2013-07-24 00:53:00
8:53 PM,84.9,68.0,57,29.85,10.0,SSW,8.1,-,N/A,,Clear,200,2013-07-24 01:53:00
9:53 PM,82.9,69.1,63,29.89,10.0,SSE,8.1,-,N/A,,Clear,150,2013-07-24 02:53:00
10:53 PM,81.0,69.1,67,29.90,10.0,SSE,5.8,-,N/A,,Clear,150,2013-07-24 03:53:00
11:53 PM,82.9,68.0,60,29.88,10.0,South,10.4,-,N/A,,Clear,190,2013-07-24 04:53:00